Time,TemperatureF,DewpointF,PressureIn,WindDirection,WindDirectionDegrees,WindSpeedMPH,WindSpeedGustMPH,Humidity,HourlyPrecipIn,Conditions,Clouds,dailyrainin,SoftwareType,DateUTC
2013-03-13 00:03:00,70.0,65.0,30.00,WNW,287,3.0,3.0,83,0.00,,,0.00,,2013-03-13 04:03:00,
2013-03-13 00:13:00,70.0,65.0,30.00,WNW,287,3.0,3.0,83,0.00,,,0.00,,2013-03-13 04:13:00,
2013-03-13 00:23:00,70.0,65.0,30.00,West,259,2.0,3.0,84,0.00,,,0.00,,2013-03-13 04:23:00,
2013-03-13 00:32:00,70.0,65.0,29.99,WNW,285,3.0,3.0,84,0.00,,,0.00,,2013-03-13 04:32:00,
2013-03-13 00:43:00,70.0,65.0,29.99,WNW,285,3.0,3.0,84,0.00,,,0.00,,2013-03-13 04:43:00,
2013-03-13 00:52:00,70.0,65.0,29.99,West,260,2.0,2.0,84,0.00,,,0.00,,2013-03-13 04:52:00,
2013-03-13 01:02:00,70.0,65.0,29.99,SW,219,0.0,0.0,84,0.00,,,0.00,,2013-03-13 05:02:00,
2013-03-13 01:12:00,70.0,65.0,29.99,SW,219,0.0,0.0,84,0.00,,,0.00,,2013-03-13 05:12:00,
2013-03-13 01:22:00,70.0,65.0,29.99,NW,325,5.0,0.0,85,0.00,,,0.00,,2013-03-13 05:22:00,
2013-03-13 01:32:00,70.0,65.0,29.99,West,277,3.0,5.0,84,0.00,,,0.00,,2013-03-13 05:32:00,
2013-03-13 01:42:00,70.0,65.0,29.99,West,277,3.0,5.0,84,0.00,,,0.00,,2013-03-13 05:42:00,
2013-03-13 01:52:00,69.0,64.0,29.99,NNW,329,6.0,6.0,85,0.00,,,0.00,,2013-03-13 05:52:00,
2013-03-13 02:02:00,69.0,65.0,30.00,WNW,283,4.0,4.0,86,0.00,,,0.00,,2013-03-13 06:02:00,
2013-03-13 02:12:00,69.0,65.0,30.00,WNW,283,4.0,4.0,86,0.00,,,0.00,,2013-03-13 06:12:00,
2013-03-13 02:23:00,68.0,64.0,30.00,WSW,243,5.0,5.0,86,0.00,,,0.00,,2013-03-13 06:23:00,
2013-03-13 02:32:00,67.0,63.0,29.99,NW,319,5.0,5.0,86,0.00,,,0.00,,2013-03-13 06:32:00,
2013-03-13 02:42:00,67.0,63.0,29.99,NW,319,5.0,5.0,86,0.00,,,0.00,,2013-03-13 06:42:00,
2013-03-13 02:53:00,67.0,63.0,29.99,West,278,6.0,8.0,87,0.00,,,0.00,,2013-03-13 06:53:00,
2013-03-13 03:02:00,66.0,62.0,29.99,NNW,346,4.0,6.0,86,0.00,,,0.00,,2013-03-13 07:02:00,
2013-03-13 03:12:00,66.0,62.0,29.99,NNW,346,4.0,6.0,86,0.00,,,0.00,,2013-03-13 07:12:00,
2013-03-13 03:22:00,66.0,61.0,29.98,North,359,5.0,5.0,85,0.00,,,0.00,,2013-03-13 07:22:00,
2013-03-13 03:32:00,66.0,61.0,29.98,NW,307,4.0,5.0,84,0.00,,,0.00,,2013-03-13 07:32:00,
2013-03-13 03:42:00,66.0,61.0,29.98,NW,307,4.0,5.0,84,0.00,,,0.00,,2013-03-13 07:42:00,
2013-03-13 03:53:00,65.0,60.0,29.98,WNW,285,4.0,4.0,85,0.00,,,0.00,,2013-03-13 07:53:00,
2013-03-13 04:03:00,64.0,60.0,29.97,NNW,328,4.0,9.0,86,0.00,,,0.00,,2013-03-13 08:03:00,
2013-03-13 04:12:00,64.0,60.0,29.97,NNW,328,4.0,9.0,86,0.00,,,0.00,,2013-03-13 08:12:00,
2013-03-13 04:22:00,64.0,60.0,29.98,WNW,301,5.0,5.0,87,0.00,,,0.00,,2013-03-13 08:22:00,
2013-03-13 04:32:00,63.0,59.0,29.98,North,349,6.0,0.0,87,0.00,,,0.00,,2013-03-13 08:32:00,
2013-03-13 04:43:00,63.0,59.0,29.98,North,349,6.0,0.0,87,0.00,,,0.00,,2013-03-13 08:43:00,
2013-03-13 04:53:00,62.0,58.0,29.99,WNW,297,7.0,9.0,87,0.00,,,0.00,,2013-03-13 08:53:00,
2013-03-13 05:02:00,61.0,57.0,29.99,NW,326,6.0,7.0,87,0.00,,,0.00,,2013-03-13 09:02:00,
2013-03-13 05:12:00,61.0,57.0,29.99,NW,326,6.0,7.0,87,0.00,,,0.00,,2013-03-13 09:12:00,
2013-03-13 05:22:00,60.0,56.0,29.99,NNE,23,3.0,7.0,88,0.00,,,0.00,,2013-03-13 09:22:00,
2013-03-13 05:32:00,60.0,57.0,29.99,NNW,335,5.0,5.0,89,0.00,,,0.00,,2013-03-13 09:32:00,
2013-03-13 05:42:00,60.0,57.0,29.99,NNW,335,5.0,5.0,89,0.00,,,0.00,,2013-03-13 09:42:00,
2013-03-13 05:52:00,59.0,56.0,29.99,NNW,338,4.0,4.0,90,0.00,,,0.00,,2013-03-13 09:52:00,
2013-03-13 06:02:00,59.0,56.0,29.99,NW,316,6.0,6.0,91,0.00,,,0.00,,2013-03-13 10:02:00,
2013-03-13 06:12:00,59.0,56.0,29.99,NW,316,6.0,6.0,91,0.00,,,0.00,,2013-03-13 10:12:00,
2013-03-13 06:22:00,59.0,57.0,30.01,North,354,7.0,7.0,92,0.00,,,0.00,,2013-03-13 10:22:00,
2013-03-13 06:32:00,59.0,56.0,30.01,NNW,339,5.0,5.0,91,0.00,,,0.00,,2013-03-13 10:32:00,
2013-03-13 06:42:00,59.0,56.0,30.01,NNW,339,5.0,5.0,91,0.00,,,0.00,,2013-03-13 10:42:00,
2013-03-13 06:52:00,58.0,55.0,30.02,NNW,346,5.0,5.0,91,0.00,,,0.00,,2013-03-13 10:52:00,
2013-03-13 07:02:00,58.0,55.0,30.02,North,1,6.0,6.0,91,0.00,,,0.00,,2013-03-13 11:02:00,
2013-03-13 07:12:00,58.0,55.0,30.02,North,1,6.0,6.0,91,0.00,,,0.00,,2013-03-13 11:12:00,
2013-03-13 07:22:00,58.0,55.0,30.03,NNW,343,3.0,3.0,91,0.00,,,0.00,,2013-03-13 11:22:00,
2013-03-13 07:32:00,58.0,55.0,30.03,NNW,338,6.0,6.0,91,0.00,,,0.00,,2013-03-13 11:32:00,
2013-03-13 07:42:00,58.0,55.0,30.03,NNW,338,6.0,6.0,91,0.00,,,0.00,,2013-03-13 11:42:00,
2013-03-13 07:53:00,58.0,56.0,30.03,NNW,340,5.0,5.0,92,0.00,,,0.00,,2013-03-13 11:53:00,
2013-03-13 08:02:00,58.0,56.0,30.03,NNW,340,3.0,3.0,92,0.00,,,0.00,,2013-03-13 12:02:00,
2013-03-13 08:12:00,58.0,56.0,30.03,NNW,340,3.0,3.0,92,0.00,,,0.00,,2013-03-13 12:12:00,
2013-03-13 08:22:00,57.0,55.0,30.04,NNW,346,0.0,3.0,92,0.00,,,0.00,,2013-03-13 12:22:00,
2013-03-13 08:32:00,58.0,55.0,30.04,WNW,300,5.0,0.0,91,0.00,,,0.00,,2013-03-13 12:32:00,
2013-03-13 08:42:00,58.0,55.0,30.04,WNW,300,5.0,0.0,91,0.00,,,0.00,,2013-03-13 12:42:00,
2013-03-13 08:52:00,58.0,55.0,30.05,NW,304,3.0,3.0,90,0.00,,,0.00,,2013-03-13 12:52:00,
2013-03-13 09:02:00,58.0,54.0,30.06,North,359,5.0,5.0,88,0.00,,,0.00,,2013-03-13 13:02:00,
2013-03-13 09:12:00,58.0,54.0,30.06,North,359,5.0,5.0,88,0.00,,,0.00,,2013-03-13 13:12:00,
2013-03-13 09:22:00,59.0,55.0,30.06,NW,319,7.0,7.0,86,0.00,,,0.00,,2013-03-13 13:22:00,
2013-03-13 09:33:00,59.0,54.0,30.07,North,354,5.0,5.0,84,0.00,,,0.00,,2013-03-13 13:33:00,
2013-03-13 09:43:00,59.0,54.0,30.07,North,354,5.0,5.0,84,0.00,,,0.00,,2013-03-13 13:43:00,
2013-03-13 09:53:00,60.0,55.0,30.07,North,354,4.0,8.0,83,0.00,,,0.00,,2013-03-13 13:53:00,
2013-03-13 10:02:00,61.0,54.0,30.08,NNW,340,7.0,7.0,79,0.00,,,0.00,,2013-03-13 14:02:00,
2013-03-13 10:12:00,61.0,54.0,30.08,NNW,340,7.0,7.0,79,0.00,,,0.00,,2013-03-13 14:12:00,
2013-03-13 10:22:00,61.0,55.0,30.08,North,3,5.0,5.0,80,0.00,,,0.00,,2013-03-13 14:22:00,
2013-03-13 10:33:00,62.0,55.0,30.08,NNW,338,8.0,8.0,79,0.00,,,0.00,,2013-03-13 14:33:00,
2013-03-13 10:42:00,62.0,55.0,30.08,NNW,338,8.0,8.0,79,0.00,,,0.00,,2013-03-13 14:42:00,
2013-03-13 10:53:00,64.0,57.0,30.09,North,353,2.0,6.0,77,0.00,,,0.00,,2013-03-13 14:53:00,
2013-03-13 11:03:00,65.0,57.0,30.09,NNW,330,7.0,7.0,75,0.00,,,0.00,,2013-03-13 15:03:00,
2013-03-13 11:12:00,65.0,57.0,30.09,NNW,330,7.0,7.0,75,0.00,,,0.00,,2013-03-13 15:12:00,
2013-03-13 11:22:00,66.0,57.0,30.09,NNW,330,4.0,4.0,73,0.00,,,0.00,,2013-03-13 15:22:00,
2013-03-13 11:32:00,67.0,57.0,30.10,WNW,297,4.0,9.0,70,0.00,,,0.00,,2013-03-13 15:32:00,
2013-03-13 11:43:00,67.0,57.0,30.10,WNW,297,4.0,9.0,70,0.00,,,0.00,,2013-03-13 15:43:00,
2013-03-13 11:53:00,68.0,57.0,30.10,NNW,339,5.0,6.0,68,0.00,,,0.00,,2013-03-13 15:53:00,
2013-03-13 12:03:00,68.0,57.0,30.09,NNE,17,8.0,8.0,69,0.00,,,0.00,,2013-03-13 16:03:00,
2013-03-13 12:12:00,68.0,57.0,30.09,NNE,17,8.0,8.0,69,0.00,,,0.00,,2013-03-13 16:12:00,
2013-03-13 12:22:00,69.0,58.0,30.09,North,356,8.0,8.0,67,0.00,,,0.00,,2013-03-13 16:22:00,
2013-03-13 12:32:00,69.0,57.0,30.10,NE,44,10.0,10.0,65,0.00,,,0.00,,2013-03-13 16:32:00,
2013-03-13 12:42:00,69.0,57.0,30.10,NE,44,10.0,10.0,65,0.00,,,0.00,,2013-03-13 16:42:00,
2013-03-13 12:52:00,70.0,56.0,30.10,NNE,27,10.0,10.0,62,0.00,,,0.00,,2013-03-13 16:52:00,
2013-03-13 13:02:00,71.0,55.0,30.09,North,6,8.0,8.0,58,0.00,,,0.00,,2013-03-13 17:02:00,
2013-03-13 13:12:00,71.0,55.0,30.09,North,6,8.0,8.0,58,0.00,,,0.00,,2013-03-13 17:12:00,
2013-03-13 13:22:00,72.0,57.0,30.09,NNE,15,6.0,7.0,59,0.00,,,0.00,,2013-03-13 17:22:00,
2013-03-13 13:32:00,72.0,54.0,30.08,North,7,10.0,14.0,54,0.00,,,0.00,,2013-03-13 17:32:00,
2013-03-13 13:42:00,72.0,54.0,30.08,North,7,10.0,14.0,54,0.00,,,0.00,,2013-03-13 17:42:00,
2013-03-13 13:53:00,73.0,57.0,30.08,NNW,342,10.0,10.0,58,0.00,,,0.00,,2013-03-13 17:53:00,
2013-03-13 14:02:00,73.0,56.0,30.08,North,359,10.0,10.0,56,0.00,,,0.00,,2013-03-13 18:02:00,
2013-03-13 14:12:00,73.0,56.0,30.08,North,359,10.0,10.0,56,0.00,,,0.00,,2013-03-13 18:12:00,
2013-03-13 14:22:00,73.0,55.0,30.07,NNW,335,11.0,12.0,53,0.00,,,0.00,,2013-03-13 18:22:00,
2013-03-13 14:33:00,73.0,55.0,30.06,NW,321,9.0,9.0,53,0.00,,,0.00,,2013-03-13 18:33:00,
2013-03-13 14:42:00,73.0,55.0,30.06,NW,321,9.0,9.0,53,0.00,,,0.00,,2013-03-13 18:42:00,
2013-03-13 14:52:00,74.0,56.0,30.06,NNW,347,8.0,8.0,53,0.00,,,0.00,,2013-03-13 18:52:00,
2013-03-13 15:02:00,73.0,54.0,30.06,NNE,18,10.0,11.0,52,0.00,,,0.00,,2013-03-13 19:02:00,
2013-03-13 15:12:00,73.0,54.0,30.06,NNE,18,10.0,11.0,52,0.00,,,0.00,,2013-03-13 19:12:00,
2013-03-13 15:22:00,73.0,54.0,30.06,North,359,8.0,10.0,52,0.00,,,0.00,,2013-03-13 19:22:00,
2013-03-13 15:32:00,73.0,53.0,30.06,North,3,9.0,9.0,49,0.00,,,0.00,,2013-03-13 19:32:00,
2013-03-13 15:43:00,73.0,53.0,30.06,North,3,9.0,9.0,49,0.00,,,0.00,,2013-03-13 19:43:00,
2013-03-13 15:53:00,73.0,50.0,30.05,NE,51,9.0,9.0,45,0.00,,,0.00,,2013-03-13 19:53:00,
2013-03-13 16:02:00,73.0,50.0,30.05,NE,44,6.0,8.0,45,0.00,,,0.00,,2013-03-13 20:02:00,
2013-03-13 16:12:00,73.0,50.0,30.05,NE,44,6.0,8.0,45,0.00,,,0.00,,2013-03-13 20:12:00,
2013-03-13 16:22:00,73.0,51.0,30.05,NNE,20,8.0,8.0,46,0.00,,,0.00,,2013-03-13 20:22:00,
2013-03-13 16:32:00,73.0,49.0,30.05,North,359,12.0,12.0,43,0.00,,,0.00,,2013-03-13 20:32:00,
2013-03-13 16:42:00,73.0,49.0,30.05,North,359,12.0,12.0,43,0.00,,,0.00,,2013-03-13 20:42:00,
2013-03-13 16:52:00,73.0,49.0,30.04,NNW,336,11.0,11.0,42,0.00,,,0.00,,2013-03-13 20:52:00,
2013-03-13 17:02:00,73.0,51.0,30.04,NNW,330,9.0,10.0,46,0.00,,,0.00,,2013-03-13 21:02:00,
2013-03-13 17:12:00,73.0,51.0,30.04,NNW,330,9.0,10.0,46,0.00,,,0.00,,2013-03-13 21:12:00,
2013-03-13 17:22:00,72.0,51.0,30.04,North,6,10.0,13.0,48,0.00,,,0.00,,2013-03-13 21:22:00,
2013-03-13 17:33:00,72.0,49.0,30.04,NNE,17,10.0,11.0,45,0.00,,,0.00,,2013-03-13 21:33:00,
2013-03-13 17:42:00,72.0,49.0,30.04,NNE,17,10.0,11.0,45,0.00,,,0.00,,2013-03-13 21:42:00,
2013-03-13 17:52:00,71.0,50.0,30.04,NE,39,9.0,9.0,47,0.00,,,0.00,,2013-03-13 21:52:00,
2013-03-13 18:02:00,71.0,49.0,30.04,NNE,24,10.0,10.0,45,0.00,,,0.00,,2013-03-13 22:02:00,
2013-03-13 18:12:00,71.0,49.0,30.04,NNE,24,10.0,10.0,45,0.00,,,0.00,,2013-03-13 22:12:00,
2013-03-13 18:22:00,71.0,50.0,30.04,North,4,8.0,8.0,48,0.00,,,0.00,,2013-03-13 22:22:00,
2013-03-13 18:32:00,71.0,50.0,30.04,North,3,8.0,8.0,47,0.00,,,0.00,,2013-03-13 22:32:00,
2013-03-13 18:42:00,71.0,50.0,30.04,North,3,8.0,8.0,47,0.00,,,0.00,,2013-03-13 22:42:00,
2013-03-13 18:52:00,70.0,47.0,30.05,NNE,18,8.0,12.0,44,0.00,,,0.00,,2013-03-13 22:52:00,
2013-03-13 19:02:00,70.0,47.0,30.05,North,353,7.0,7.0,44,0.00,,,0.00,,2013-03-13 23:02:00,
2013-03-13 19:12:00,70.0,47.0,30.05,North,353,7.0,7.0,44,0.00,,,0.00,,2013-03-13 23:12:00,
2013-03-13 19:22:00,69.0,45.0,30.05,NNE,25,9.0,9.0,42,0.00,,,0.00,,2013-03-13 23:22:00,
2013-03-13 19:32:00,68.0,46.0,30.06,NNE,20,4.0,4.0,46,0.00,,,0.00,,2013-03-13 23:32:00,
2013-03-13 19:42:00,68.0,46.0,30.06,NNE,20,4.0,4.0,46,0.00,,,0.00,,2013-03-13 23:42:00,
2013-03-13 19:52:00,68.0,48.0,30.05,NNE,24,5.0,6.0,48,0.00,,,0.00,,2013-03-13 23:52:00,
2013-03-13 20:02:00,67.0,49.0,30.06,NNE,20,3.0,4.0,53,0.00,,,0.00,,2013-03-14 00:02:00,
2013-03-13 20:13:00,67.0,49.0,30.06,NNE,20,3.0,4.0,53,0.00,,,0.00,,2013-03-14 00:13:00,
2013-03-13 20:22:00,67.0,51.0,30.06,NNE,23,6.0,6.0,56,0.00,,,0.00,,2013-03-14 00:22:00,
2013-03-13 20:32:00,66.0,50.0,30.07,North,354,1.0,1.0,57,0.00,,,0.00,,2013-03-14 00:32:00,
2013-03-13 20:42:00,66.0,50.0,30.07,North,354,1.0,1.0,57,0.00,,,0.00,,2013-03-14 00:42:00,
2013-03-13 20:52:00,65.0,50.0,30.07,North,349,1.0,2.0,59,0.00,,,0.00,,2013-03-14 00:52:00,
2013-03-13 21:02:00,64.0,50.0,30.08,North,353,0.0,0.0,60,0.00,,,0.00,,2013-03-14 01:02:00,
2013-03-13 21:12:00,64.0,50.0,30.08,North,353,0.0,0.0,60,0.00,,,0.00,,2013-03-14 01:12:00,
2013-03-13 21:22:00,64.0,51.0,30.08,North,6,1.0,2.0,62,0.00,,,0.00,,2013-03-14 01:22:00,
2013-03-13 21:32:00,64.0,51.0,30.09,North,350,0.0,0.0,63,0.00,,,0.00,,2013-03-14 01:32:00,
2013-03-13 21:42:00,64.0,51.0,30.09,North,350,0.0,0.0,63,0.00,,,0.00,,2013-03-14 01:42:00,
2013-03-13 21:53:00,64.0,52.0,30.09,North,3,1.0,2.0,64,0.00,,,0.00,,2013-03-14 01:53:00,
2013-03-13 22:02:00,64.0,52.0,30.09,NNW,329,0.0,0.0,65,0.00,,,0.00,,2013-03-14 02:02:00,
2013-03-13 22:12:00,64.0,52.0,30.09,NNW,329,0.0,0.0,65,0.00,,,0.00,,2013-03-14 02:12:00,
2013-03-13 22:22:00,63.0,52.0,30.10,West,280,0.0,0.0,67,0.00,,,0.00,,2013-03-14 02:22:00,
2013-03-13 22:32:00,63.0,53.0,30.11,West,280,0.0,0.0,69,0.00,,,0.00,,2013-03-14 02:32:00,
2013-03-13 22:42:00,63.0,53.0,30.11,West,280,0.0,0.0,69,0.00,,,0.00,,2013-03-14 02:42:00,
2013-03-13 22:52:00,63.0,53.0,30.11,West,280,0.0,0.0,69,0.00,,,0.00,,2013-03-14 02:52:00,
2013-03-13 23:02:00,62.0,53.0,30.11,NW,307,0.0,0.0,73,0.00,,,0.00,,2013-03-14 03:02:00,
2013-03-13 23:12:00,62.0,53.0,30.11,NW,307,0.0,0.0,73,0.00,,,0.00,,2013-03-14 03:12:00,
2013-03-13 23:23:00,62.0,53.0,30.11,NW,307,0.0,0.0,73,0.00,,,0.00,,2013-03-14 03:23:00,
2013-03-13 23:32:00,62.0,53.0,30.11,NW,307,0.0,0.0,73,0.00,,,0.00,,2013-03-14 03:32:00,
2013-03-13 23:42:00,62.0,53.0,30.11,NW,307,0.0,0.0,73,0.00,,,0.00,,2013-03-14 03:42:00,
2013-03-13 23:53:00,62.0,54.0,30.11,NW,307,0.0,0.0,74,0.00,,,0.00,,2013-03-14 03:53:00,